Multibeam Report for NBP1305


Ship Name: Nathaniel B. Palmer
Chief Scientist: Devol, Allan
University of Washington
Source Organization: Marine Geoscience Data System (MGDS)
Start Date: 2013-06-24
End Date: 2013-07-27


View ISO Metadata

Visit the full NCEI Bathymetry Viewer


Multibeam Bathymetry

Cruise Details

Project:
Instrument: Kongsberg EM120

Data Quality

Number of Files: 566
Number of Records: 211660
BATHYMETRY DATA Quantity Percentage
Number of Beams 40427060 100%
Number of Good Beams 35337798 87.41%
Number of Zero Beams 5089262 12.59%
Number of Flagged Beams 0 0%
AMPLITUDE DATA Quantity Percentage
Number of Beams 40427060 100%
Number of Good Beams 35337798 87.41%
Number of Zero Beams 5089262 12.59%
Number of Flagged Beams 0 0%
SIDESCAN DATA Quantity Percentage
Number of Pixels 216739840 100%
Number of Good Pixels 113855623 52.53%
Number of Zero Pixels 0 0%
Number of Flagged Pixels 102884217 47.47%

Navigation Totals

Total Time: 559.5305 hours
Total Track Length: 5354.9949 km
Average Speed: 9.571 km/hr (5.1679 knots)

Cruise Bounds

Northern Extent: -11.999652
Southern Extent: -22.216648
Western Extent: -85.99933
Eastern Extent: -70.47269

Limits

Minimum Sonar Depth 6.29 Maximum Sonar Depth 8.22
Minimum Altitude 0 Maximum Altitude 7366.3999
Minimum Depth 486.55 Maximum Depth 7788.6802
Minimum Amplitude 0 Maximum Amplitude 22.5
Minimum Sidescan 0 Maximum Sidescan 63

File Information

Full Resolution Bathymetry as collected (raw): 563

Files File Size Description
0000_20130627_234312_raw.all.mb56.gz 8.71MB Simrad multibeam vendor format
0001_20130628_004312_raw.all.mb56.gz 8.90MB Simrad multibeam vendor format
0002_20130628_014312_raw.all.mb56.gz 8.79MB Simrad multibeam vendor format
0003_20130628_024312_raw.all.mb56.gz 8.77MB Simrad multibeam vendor format
0004_20130628_034312_raw.all.mb56.gz 8.76MB Simrad multibeam vendor format
0005_20130628_044312_raw.all.mb56.gz 8.56MB Simrad multibeam vendor format
0006_20130628_054312_raw.all.mb56.gz 8.75MB Simrad multibeam vendor format
0007_20130628_064312_raw.all.mb56.gz 8.73MB Simrad multibeam vendor format
0008_20130628_074312_raw.all.mb56.gz 8.81MB Simrad multibeam vendor format
0009_20130628_084312_raw.all.mb56.gz 8.61MB Simrad multibeam vendor format
0010_20130628_094312_raw.all.mb56.gz 8.68MB Simrad multibeam vendor format
0011_20130628_104312_raw.all.mb56.gz 8.52MB Simrad multibeam vendor format
0012_20130628_114312_raw.all.mb56.gz 8.23MB Simrad multibeam vendor format
0013_20130628_124020_raw.all.mb56.gz 8.62MB Simrad multibeam vendor format
0014_20130628_134020_raw.all.mb56.gz 8.62MB Simrad multibeam vendor format
0015_20130628_144020_raw.all.mb56.gz 8.56MB Simrad multibeam vendor format
0016_20130628_154020_raw.all.mb56.gz 8.50MB Simrad multibeam vendor format
0017_20130628_164020_raw.all.mb56.gz 8.30MB Simrad multibeam vendor format
0018_20130628_174020_raw.all.mb56.gz 8.61MB Simrad multibeam vendor format
0019_20130628_184020_raw.all.mb56.gz 6.23MB Simrad multibeam vendor format
0020_20130629_014523_raw.all.mb56.gz 8.50MB Simrad multibeam vendor format
0021_20130629_024523_raw.all.mb56.gz 8.51MB Simrad multibeam vendor format
0022_20130629_034523_raw.all.mb56.gz 8.21MB Simrad multibeam vendor format
0023_20130629_044523_raw.all.mb56.gz 8.19MB Simrad multibeam vendor format
0024_20130629_054523_raw.all.mb56.gz 8.05MB Simrad multibeam vendor format
0025_20130629_064523_raw.all.mb56.gz 8.47MB Simrad multibeam vendor format
0026_20130629_074523_raw.all.mb56.gz 8.42MB Simrad multibeam vendor format
0027_20130629_084523_raw.all.mb56.gz 8.51MB Simrad multibeam vendor format
0028_20130629_094523_raw.all.mb56.gz 8.41MB Simrad multibeam vendor format
0029_20130629_104523_raw.all.mb56.gz 8.50MB Simrad multibeam vendor format
0030_20130629_114523_raw.all.mb56.gz 8.53MB Simrad multibeam vendor format
0031_20130629_124523_raw.all.mb56.gz 8.63MB Simrad multibeam vendor format
0032_20130629_134523_raw.all.mb56.gz 8.47MB Simrad multibeam vendor format
0033_20130629_144524_raw.all.mb56.gz 8.61MB Simrad multibeam vendor format
0034_20130629_154524_raw.all.mb56.gz 8.59MB Simrad multibeam vendor format
0035_20130629_164524_raw.all.mb56.gz 8.76MB Simrad multibeam vendor format
0036_20130629_174524_raw.all.mb56.gz 8.62MB Simrad multibeam vendor format
0037_20130629_184524_raw.all.mb56.gz 8.32MB Simrad multibeam vendor format
0038_20130629_194524_raw.all.mb56.gz 8.84MB Simrad multibeam vendor format
0039_20130629_204524_raw.all.mb56.gz 8.84MB Simrad multibeam vendor format
0040_20130629_214524_raw.all.mb56.gz 9.23MB Simrad multibeam vendor format
0041_20130629_224524_raw.all.mb56.gz 9.02MB Simrad multibeam vendor format
0042_20130629_234524_raw.all.mb56.gz 9.04MB Simrad multibeam vendor format
0043_20130630_004524_raw.all.mb56.gz 9.21MB Simrad multibeam vendor format
0044_20130630_014524_raw.all.mb56.gz 9.47MB Simrad multibeam vendor format
0045_20130630_024524_raw.all.mb56.gz 9.64MB Simrad multibeam vendor format
0046_20130630_034525_raw.all.mb56.gz 9.65MB Simrad multibeam vendor format
0047_20130630_044525_raw.all.mb56.gz 9.62MB Simrad multibeam vendor format
0048_20130630_054525_raw.all.mb56.gz 9.59MB Simrad multibeam vendor format
0049_20130630_064525_raw.all.mb56.gz 9.58MB Simrad multibeam vendor format
0050_20130630_074525_raw.all.mb56.gz 9.60MB Simrad multibeam vendor format
0051_20130630_084525_raw.all.mb56.gz 9.62MB Simrad multibeam vendor format
0052_20130630_094525_raw.all.mb56.gz 8.57MB Simrad multibeam vendor format
0053_20130630_104525_raw.all.mb56.gz 8.58MB Simrad multibeam vendor format
0054_20130630_114525_raw.all.mb56.gz 8.61MB Simrad multibeam vendor format
0055_20130630_124525_raw.all.mb56.gz 8.73MB Simrad multibeam vendor format
0056_20130630_134525_raw.all.mb56.gz 8.49MB Simrad multibeam vendor format
0057_20130630_144525_raw.all.mb56.gz 8.50MB Simrad multibeam vendor format
0058_20130630_154525_raw.all.mb56.gz 8.62MB Simrad multibeam vendor format
0059_20130630_164525_raw.all.mb56.gz 8.53MB Simrad multibeam vendor format
0060_20130630_174525_raw.all.mb56.gz 8.49MB Simrad multibeam vendor format
0061_20130630_184525_raw.all.mb56.gz 8.44MB Simrad multibeam vendor format
0062_20130630_194525_raw.all.mb56.gz 8.65MB Simrad multibeam vendor format
0063_20130630_204525_raw.all.mb56.gz 8.31MB Simrad multibeam vendor format
0064_20130630_214525_raw.all.mb56.gz 8.65MB Simrad multibeam vendor format
0065_20130630_224525_raw.all.mb56.gz 8.75MB Simrad multibeam vendor format
0066_20130630_234525_raw.all.mb56.gz 8.71MB Simrad multibeam vendor format
0067_20130701_004525_raw.all.mb56.gz 8.43MB Simrad multibeam vendor format
0068_20130701_014525_raw.all.mb56.gz 8.46MB Simrad multibeam vendor format
0069_20130701_024525_raw.all.mb56.gz 8.46MB Simrad multibeam vendor format
0070_20130701_034525_raw.all.mb56.gz 8.34MB Simrad multibeam vendor format
0071_20130701_044525_raw.all.mb56.gz 8.49MB Simrad multibeam vendor format
0072_20130701_054525_raw.all.mb56.gz 8.33MB Simrad multibeam vendor format
0073_20130701_064525_raw.all.mb56.gz 8.39MB Simrad multibeam vendor format
0074_20130701_074525_raw.all.mb56.gz 8.26MB Simrad multibeam vendor format
0075_20130701_084525_raw.all.mb56.gz 8.24MB Simrad multibeam vendor format
0076_20130701_094525_raw.all.mb56.gz 8.14MB Simrad multibeam vendor format
0077_20130701_104525_raw.all.mb56.gz 8.35MB Simrad multibeam vendor format
0078_20130701_114525_raw.all.mb56.gz 8.53MB Simrad multibeam vendor format
0079_20130701_124525_raw.all.mb56.gz 8.66MB Simrad multibeam vendor format
0080_20130701_134525_raw.all.mb56.gz 8.60MB Simrad multibeam vendor format
0081_20130701_144525_raw.all.mb56.gz 8.59MB Simrad multibeam vendor format
0082_20130701_154525_raw.all.mb56.gz 8.56MB Simrad multibeam vendor format
0083_20130701_164525_raw.all.mb56.gz 7.68MB Simrad multibeam vendor format
0084_20130701_174525_raw.all.mb56.gz 8.42MB Simrad multibeam vendor format
0085_20130701_184525_raw.all.mb56.gz 8.72MB Simrad multibeam vendor format
0086_20130701_194525_raw.all.mb56.gz 8.54MB Simrad multibeam vendor format
0087_20130701_204525_raw.all.mb56.gz 8.05MB Simrad multibeam vendor format
0088_20130701_214525_raw.all.mb56.gz 8.60MB Simrad multibeam vendor format
0089_20130701_224525_raw.all.mb56.gz 8.64MB Simrad multibeam vendor format
0090_20130701_234525_raw.all.mb56.gz 8.66MB Simrad multibeam vendor format
0091_20130702_004525_raw.all.mb56.gz 8.64MB Simrad multibeam vendor format
0092_20130702_014525_raw.all.mb56.gz 8.64MB Simrad multibeam vendor format
0093_20130702_024525_raw.all.mb56.gz 8.37MB Simrad multibeam vendor format
0094_20130702_034525_raw.all.mb56.gz 8.55MB Simrad multibeam vendor format
0095_20130702_044525_raw.all.mb56.gz 8.56MB Simrad multibeam vendor format
0096_20130702_054525_raw.all.mb56.gz 8.68MB Simrad multibeam vendor format
0097_20130702_064525_raw.all.mb56.gz 8.66MB Simrad multibeam vendor format
0098_20130702_074525_raw.all.mb56.gz 8.66MB Simrad multibeam vendor format
0099_20130702_084525_raw.all.mb56.gz 7.66MB Simrad multibeam vendor format
0100_20130702_094525_raw.all.mb56.gz 7.49MB Simrad multibeam vendor format
0101_20130702_104525_raw.all.mb56.gz 8.62MB Simrad multibeam vendor format
0102_20130702_114525_raw.all.mb56.gz 8.72MB Simrad multibeam vendor format
0103_20130702_124525_raw.all.mb56.gz 8.68MB Simrad multibeam vendor format
0104_20130702_134525_raw.all.mb56.gz 8.64MB Simrad multibeam vendor format
0105_20130702_144525_raw.all.mb56.gz 8.36MB Simrad multibeam vendor format
0106_20130702_154525_raw.all.mb56.gz 8.57MB Simrad multibeam vendor format
0107_20130702_164525_raw.all.mb56.gz 8.69MB Simrad multibeam vendor format
0108_20130702_174525_raw.all.mb56.gz 8.76MB Simrad multibeam vendor format
0109_20130702_184525_raw.all.mb56.gz 8.59MB Simrad multibeam vendor format
0110_20130702_194525_raw.all.mb56.gz 8.58MB Simrad multibeam vendor format
0111_20130702_204525_raw.all.mb56.gz 8.73MB Simrad multibeam vendor format
0112_20130702_214525_raw.all.mb56.gz 8.49MB Simrad multibeam vendor format
0113_20130702_224525_raw.all.mb56.gz 8.72MB Simrad multibeam vendor format
0114_20130702_234525_raw.all.mb56.gz 8.69MB Simrad multibeam vendor format
0115_20130703_004525_raw.all.mb56.gz 8.71MB Simrad multibeam vendor format
0116_20130703_014525_raw.all.mb56.gz 8.66MB Simrad multibeam vendor format
0117_20130703_024525_raw.all.mb56.gz 8.62MB Simrad multibeam vendor format
0118_20130703_034525_raw.all.mb56.gz 8.71MB Simrad multibeam vendor format
0119_20130703_044525_raw.all.mb56.gz 8.72MB Simrad multibeam vendor format
0120_20130703_054525_raw.all.mb56.gz 8.51MB Simrad multibeam vendor format
0121_20130703_064525_raw.all.mb56.gz 8.58MB Simrad multibeam vendor format
0122_20130703_074525_raw.all.mb56.gz 8.75MB Simrad multibeam vendor format
0123_20130703_084525_raw.all.mb56.gz 8.83MB Simrad multibeam vendor format
0124_20130703_094525_raw.all.mb56.gz 8.65MB Simrad multibeam vendor format
0125_20130703_104525_raw.all.mb56.gz 8.96MB Simrad multibeam vendor format
0126_20130703_114525_raw.all.mb56.gz 8.92MB Simrad multibeam vendor format
0127_20130703_124525_raw.all.mb56.gz 8.66MB Simrad multibeam vendor format
0128_20130703_134525_raw.all.mb56.gz 8.56MB Simrad multibeam vendor format
0129_20130703_144525_raw.all.mb56.gz 8.72MB Simrad multibeam vendor format
0130_20130703_154525_raw.all.mb56.gz 8.75MB Simrad multibeam vendor format
0131_20130703_164525_raw.all.mb56.gz 8.57MB Simrad multibeam vendor format
0132_20130703_174525_raw.all.mb56.gz 8.56MB Simrad multibeam vendor format
0133_20130703_184525_raw.all.mb56.gz 8.53MB Simrad multibeam vendor format
0134_20130703_194525_raw.all.mb56.gz 8.71MB Simrad multibeam vendor format
0135_20130703_204525_raw.all.mb56.gz 8.52MB Simrad multibeam vendor format
0136_20130703_214525_raw.all.mb56.gz 8.62MB Simrad multibeam vendor format
0137_20130703_224525_raw.all.mb56.gz 8.48MB Simrad multibeam vendor format
0138_20130703_234525_raw.all.mb56.gz 8.46MB Simrad multibeam vendor format
0139_20130704_004525_raw.all.mb56.gz 8.55MB Simrad multibeam vendor format
0140_20130704_014525_raw.all.mb56.gz 8.76MB Simrad multibeam vendor format
0141_20130704_024525_raw.all.mb56.gz 8.59MB Simrad multibeam vendor format
0142_20130704_034525_raw.all.mb56.gz 8.56MB Simrad multibeam vendor format
0143_20130704_044525_raw.all.mb56.gz 8.76MB Simrad multibeam vendor format
0144_20130704_054525_raw.all.mb56.gz 8.56MB Simrad multibeam vendor format
0145_20130704_064525_raw.all.mb56.gz 8.83MB Simrad multibeam vendor format
0146_20130704_074525_raw.all.mb56.gz 8.90MB Simrad multibeam vendor format
0147_20130704_084525_raw.all.mb56.gz 8.72MB Simrad multibeam vendor format
0148_20130704_094525_raw.all.mb56.gz 9.03MB Simrad multibeam vendor format
0149_20130704_104526_raw.all.mb56.gz 9.06MB Simrad multibeam vendor format
0150_20130704_114526_raw.all.mb56.gz 9.12MB Simrad multibeam vendor format
0151_20130704_124526_raw.all.mb56.gz 9.12MB Simrad multibeam vendor format
0152_20130704_134526_raw.all.mb56.gz 9.10MB Simrad multibeam vendor format
0153_20130704_144526_raw.all.mb56.gz 9.08MB Simrad multibeam vendor format
0154_20130704_154526_raw.all.mb56.gz 8.55MB Simrad multibeam vendor format
0155_20130704_164526_raw.all.mb56.gz 8.61MB Simrad multibeam vendor format
0156_20130704_174526_raw.all.mb56.gz 9.07MB Simrad multibeam vendor format
0157_20130704_184526_raw.all.mb56.gz 8.87MB Simrad multibeam vendor format
0158_20130704_194526_raw.all.mb56.gz 8.67MB Simrad multibeam vendor format
0159_20130704_204526_raw.all.mb56.gz 8.46MB Simrad multibeam vendor format
0160_20130704_214526_raw.all.mb56.gz 9.03MB Simrad multibeam vendor format
0161_20130704_224526_raw.all.mb56.gz 9.10MB Simrad multibeam vendor format
0162_20130704_234526_raw.all.mb56.gz 8.89MB Simrad multibeam vendor format
0163_20130705_004526_raw.all.mb56.gz 9.01MB Simrad multibeam vendor format
0164_20130705_014526_raw.all.mb56.gz 9.11MB Simrad multibeam vendor format
0165_20130705_024526_raw.all.mb56.gz 9.12MB Simrad multibeam vendor format
0166_20130705_034526_raw.all.mb56.gz 9.12MB Simrad multibeam vendor format
0167_20130705_044526_raw.all.mb56.gz 9.12MB Simrad multibeam vendor format
0168_20130705_054526_raw.all.mb56.gz 9.09MB Simrad multibeam vendor format
0169_20130705_064526_raw.all.mb56.gz 9.10MB Simrad multibeam vendor format
0170_20130705_074526_raw.all.mb56.gz 8.88MB Simrad multibeam vendor format
0171_20130705_084526_raw.all.mb56.gz 8.86MB Simrad multibeam vendor format
0172_20130705_094526_raw.all.mb56.gz 9.06MB Simrad multibeam vendor format
0173_20130705_104526_raw.all.mb56.gz 9.13MB Simrad multibeam vendor format
0174_20130705_114526_raw.all.mb56.gz 9.15MB Simrad multibeam vendor format
0175_20130705_124526_raw.all.mb56.gz 9.13MB Simrad multibeam vendor format
0176_20130705_134526_raw.all.mb56.gz 9.04MB Simrad multibeam vendor format
0177_20130705_144526_raw.all.mb56.gz 8.84MB Simrad multibeam vendor format
0178_20130705_154526_raw.all.mb56.gz 9.07MB Simrad multibeam vendor format
0179_20130705_164526_raw.all.mb56.gz 9.13MB Simrad multibeam vendor format
0180_20130705_174526_raw.all.mb56.gz 9.12MB Simrad multibeam vendor format
0181_20130705_184526_raw.all.mb56.gz 9.12MB Simrad multibeam vendor format
0182_20130705_194526_raw.all.mb56.gz 8.96MB Simrad multibeam vendor format
0183_20130705_204526_raw.all.mb56.gz 8.96MB Simrad multibeam vendor format
0184_20130705_214526_raw.all.mb56.gz 8.65MB Simrad multibeam vendor format
0185_20130705_224526_raw.all.mb56.gz 8.83MB Simrad multibeam vendor format
0186_20130705_234526_raw.all.mb56.gz 8.99MB Simrad multibeam vendor format
0187_20130706_004526_raw.all.mb56.gz 8.94MB Simrad multibeam vendor format
0188_20130706_014526_raw.all.mb56.gz 9.04MB Simrad multibeam vendor format
0189_20130706_024526_raw.all.mb56.gz 9.07MB Simrad multibeam vendor format
0190_20130706_034526_raw.all.mb56.gz 9.03MB Simrad multibeam vendor format
0191_20130706_044526_raw.all.mb56.gz 9.02MB Simrad multibeam vendor format
0192_20130706_054526_raw.all.mb56.gz 9.11MB Simrad multibeam vendor format
0193_20130706_064526_raw.all.mb56.gz 8.92MB Simrad multibeam vendor format
0194_20130706_074526_raw.all.mb56.gz 8.97MB Simrad multibeam vendor format
0195_20130706_084526_raw.all.mb56.gz 9.00MB Simrad multibeam vendor format
0196_20130706_094526_raw.all.mb56.gz 9.01MB Simrad multibeam vendor format
0197_20130706_104526_raw.all.mb56.gz 9.04MB Simrad multibeam vendor format
0198_20130706_114526_raw.all.mb56.gz 9.11MB Simrad multibeam vendor format
0199_20130706_124526_raw.all.mb56.gz 9.14MB Simrad multibeam vendor format
0200_20130706_134526_raw.all.mb56.gz 9.02MB Simrad multibeam vendor format
0201_20130706_144526_raw.all.mb56.gz 9.11MB Simrad multibeam vendor format
0202_20130706_154526_raw.all.mb56.gz 9.44MB Simrad multibeam vendor format
0203_20130706_164526_raw.all.mb56.gz 9.34MB Simrad multibeam vendor format
0204_20130706_174526_raw.all.mb56.gz 8.81MB Simrad multibeam vendor format
0205_20130706_184526_raw.all.mb56.gz 8.97MB Simrad multibeam vendor format
0206_20130706_194526_raw.all.mb56.gz 8.95MB Simrad multibeam vendor format
0207_20130706_204526_raw.all.mb56.gz 8.96MB Simrad multibeam vendor format
0208_20130706_214526_raw.all.mb56.gz 8.96MB Simrad multibeam vendor format
0209_20130706_224526_raw.all.mb56.gz 8.84MB Simrad multibeam vendor format
0210_20130706_234526_raw.all.mb56.gz 8.78MB Simrad multibeam vendor format
0211_20130707_004526_raw.all.mb56.gz 8.91MB Simrad multibeam vendor format
0212_20130707_014526_raw.all.mb56.gz 9.04MB Simrad multibeam vendor format
0213_20130707_024526_raw.all.mb56.gz 9.10MB Simrad multibeam vendor format
0214_20130707_034526_raw.all.mb56.gz 8.95MB Simrad multibeam vendor format
0215_20130707_044526_raw.all.mb56.gz 9.04MB Simrad multibeam vendor format
0216_20130707_054526_raw.all.mb56.gz 9.09MB Simrad multibeam vendor format
0217_20130707_064526_raw.all.mb56.gz 9.08MB Simrad multibeam vendor format
0218_20130707_074526_raw.all.mb56.gz 8.71MB Simrad multibeam vendor format
0219_20130707_084526_raw.all.mb56.gz 8.97MB Simrad multibeam vendor format
0220_20130707_094526_raw.all.mb56.gz 9.13MB Simrad multibeam vendor format
0221_20130707_104526_raw.all.mb56.gz 9.04MB Simrad multibeam vendor format
0222_20130707_114526_raw.all.mb56.gz 9.01MB Simrad multibeam vendor format
0223_20130707_124526_raw.all.mb56.gz 8.97MB Simrad multibeam vendor format
0224_20130707_134526_raw.all.mb56.gz 8.87MB Simrad multibeam vendor format
0225_20130707_144526_raw.all.mb56.gz 8.81MB Simrad multibeam vendor format
0226_20130707_154526_raw.all.mb56.gz 9.03MB Simrad multibeam vendor format
0227_20130707_164526_raw.all.mb56.gz 8.98MB Simrad multibeam vendor format
0228_20130707_174526_raw.all.mb56.gz 9.00MB Simrad multibeam vendor format
0229_20130707_184526_raw.all.mb56.gz 8.86MB Simrad multibeam vendor format
0230_20130707_194526_raw.all.mb56.gz 8.87MB Simrad multibeam vendor format
0231_20130707_204526_raw.all.mb56.gz 9.06MB Simrad multibeam vendor format
0232_20130707_214526_raw.all.mb56.gz 9.07MB Simrad multibeam vendor format
0233_20130707_224526_raw.all.mb56.gz 8.92MB Simrad multibeam vendor format
0234_20130707_234526_raw.all.mb56.gz 9.06MB Simrad multibeam vendor format
0235_20130708_004526_raw.all.mb56.gz 8.94MB Simrad multibeam vendor format
0236_20130708_014526_raw.all.mb56.gz 8.87MB Simrad multibeam vendor format
0237_20130708_024526_raw.all.mb56.gz 8.66MB Simrad multibeam vendor format
0238_20130708_034526_raw.all.mb56.gz 8.68MB Simrad multibeam vendor format
0239_20130708_044526_raw.all.mb56.gz 8.61MB Simrad multibeam vendor format
0240_20130708_054526_raw.all.mb56.gz 8.59MB Simrad multibeam vendor format
0241_20130708_064526_raw.all.mb56.gz 8.50MB Simrad multibeam vendor format
0242_20130708_074526_raw.all.mb56.gz 8.56MB Simrad multibeam vendor format
0243_20130708_084526_raw.all.mb56.gz 8.62MB Simrad multibeam vendor format
0244_20130708_094526_raw.all.mb56.gz 8.55MB Simrad multibeam vendor format
0245_20130708_104526_raw.all.mb56.gz 8.50MB Simrad multibeam vendor format
0246_20130708_114526_raw.all.mb56.gz 8.35MB Simrad multibeam vendor format
0247_20130708_124526_raw.all.mb56.gz 8.28MB Simrad multibeam vendor format
0248_20130708_134526_raw.all.mb56.gz 8.43MB Simrad multibeam vendor format
0249_20130708_144526_raw.all.mb56.gz 8.37MB Simrad multibeam vendor format
0250_20130708_154526_raw.all.mb56.gz 8.37MB Simrad multibeam vendor format
0251_20130708_164526_raw.all.mb56.gz 8.30MB Simrad multibeam vendor format
0252_20130708_174526_raw.all.mb56.gz 8.26MB Simrad multibeam vendor format
0253_20130708_184526_raw.all.mb56.gz 8.33MB Simrad multibeam vendor format
0254_20130708_194526_raw.all.mb56.gz 8.34MB Simrad multibeam vendor format
0255_20130708_204526_raw.all.mb56.gz 8.30MB Simrad multibeam vendor format
0256_20130708_214526_raw.all.mb56.gz 8.20MB Simrad multibeam vendor format
0257_20130708_224526_raw.all.mb56.gz 8.19MB Simrad multibeam vendor format
0258_20130708_234526_raw.all.mb56.gz 8.03MB Simrad multibeam vendor format
0259_20130709_004526_raw.all.mb56.gz 8.42MB Simrad multibeam vendor format
0260_20130709_014526_raw.all.mb56.gz 8.27MB Simrad multibeam vendor format
0261_20130709_024526_raw.all.mb56.gz 8.22MB Simrad multibeam vendor format
0262_20130709_034526_raw.all.mb56.gz 8.25MB Simrad multibeam vendor format
0263_20130709_044526_raw.all.mb56.gz 8.29MB Simrad multibeam vendor format
0264_20130709_054526_raw.all.mb56.gz 8.27MB Simrad multibeam vendor format
0265_20130709_064526_raw.all.mb56.gz 8.26MB Simrad multibeam vendor format
0266_20130709_074526_raw.all.mb56.gz 8.18MB Simrad multibeam vendor format
0267_20130709_084526_raw.all.mb56.gz 8.34MB Simrad multibeam vendor format
0268_20130709_094526_raw.all.mb56.gz 9.18MB Simrad multibeam vendor format
0269_20130709_104526_raw.all.mb56.gz 9.18MB Simrad multibeam vendor format
0270_20130709_114526_raw.all.mb56.gz 9.12MB Simrad multibeam vendor format
0271_20130709_124526_raw.all.mb56.gz 9.14MB Simrad multibeam vendor format
0272_20130709_134526_raw.all.mb56.gz 9.20MB Simrad multibeam vendor format
0273_20130709_144526_raw.all.mb56.gz 9.15MB Simrad multibeam vendor format
0274_20130709_154526_raw.all.mb56.gz 9.10MB Simrad multibeam vendor format
0275_20130709_164526_raw.all.mb56.gz 9.03MB Simrad multibeam vendor format
0276_20130709_174526_raw.all.mb56.gz 8.92MB Simrad multibeam vendor format
0277_20130709_184526_raw.all.mb56.gz 9.08MB Simrad multibeam vendor format
0278_20130709_194526_raw.all.mb56.gz 9.18MB Simrad multibeam vendor format
0279_20130709_204526_raw.all.mb56.gz 9.08MB Simrad multibeam vendor format
0280_20130709_214526_raw.all.mb56.gz 9.07MB Simrad multibeam vendor format
0281_20130709_224526_raw.all.mb56.gz 9.04MB Simrad multibeam vendor format
0282_20130709_234526_raw.all.mb56.gz 9.15MB Simrad multibeam vendor format
0283_20130710_004526_raw.all.mb56.gz 8.98MB Simrad multibeam vendor format
0284_20130710_014526_raw.all.mb56.gz 9.08MB Simrad multibeam vendor format
0285_20130710_024526_raw.all.mb56.gz 9.04MB Simrad multibeam vendor format
0286_20130710_034526_raw.all.mb56.gz 9.11MB Simrad multibeam vendor format
0287_20130710_044526_raw.all.mb56.gz 8.95MB Simrad multibeam vendor format
0288_20130710_054527_raw.all.mb56.gz 8.93MB Simrad multibeam vendor format
0289_20130710_064527_raw.all.mb56.gz 9.04MB Simrad multibeam vendor format
0290_20130710_074527_raw.all.mb56.gz 9.07MB Simrad multibeam vendor format
0291_20130710_084527_raw.all.mb56.gz 9.17MB Simrad multibeam vendor format
0292_20130710_094527_raw.all.mb56.gz 9.14MB Simrad multibeam vendor format
0293_20130710_104527_raw.all.mb56.gz 9.08MB Simrad multibeam vendor format
0294_20130710_114527_raw.all.mb56.gz 9.08MB Simrad multibeam vendor format
0295_20130710_124527_raw.all.mb56.gz 9.11MB Simrad multibeam vendor format
0296_20130710_134527_raw.all.mb56.gz 9.11MB Simrad multibeam vendor format
0297_20130710_144527_raw.all.mb56.gz 9.13MB Simrad multibeam vendor format
0298_20130710_154527_raw.all.mb56.gz 8.84MB Simrad multibeam vendor format
0299_20130710_164527_raw.all.mb56.gz 8.66MB Simrad multibeam vendor format
0300_20130710_174527_raw.all.mb56.gz 8.91MB Simrad multibeam vendor format
0301_20130710_184527_raw.all.mb56.gz 9.01MB Simrad multibeam vendor format
0302_20130710_194527_raw.all.mb56.gz 9.11MB Simrad multibeam vendor format
0303_20130710_204527_raw.all.mb56.gz 9.01MB Simrad multibeam vendor format
0304_20130710_214527_raw.all.mb56.gz 9.09MB Simrad multibeam vendor format
0305_20130710_224527_raw.all.mb56.gz 9.04MB Simrad multibeam vendor format
0306_20130710_234527_raw.all.mb56.gz 9.15MB Simrad multibeam vendor format
0307_20130711_004527_raw.all.mb56.gz 9.18MB Simrad multibeam vendor format
0308_20130711_014527_raw.all.mb56.gz 9.13MB Simrad multibeam vendor format
0309_20130711_024527_raw.all.mb56.gz 9.06MB Simrad multibeam vendor format
0310_20130711_034527_raw.all.mb56.gz 8.99MB Simrad multibeam vendor format
0311_20130711_044527_raw.all.mb56.gz 9.06MB Simrad multibeam vendor format
0312_20130711_054527_raw.all.mb56.gz 9.04MB Simrad multibeam vendor format
0313_20130711_064527_raw.all.mb56.gz 8.89MB Simrad multibeam vendor format
0314_20130711_074527_raw.all.mb56.gz 8.86MB Simrad multibeam vendor format
0315_20130711_084527_raw.all.mb56.gz 8.89MB Simrad multibeam vendor format
0316_20130711_094527_raw.all.mb56.gz 9.09MB Simrad multibeam vendor format
0317_20130711_104527_raw.all.mb56.gz 8.95MB Simrad multibeam vendor format
0318_20130711_114527_raw.all.mb56.gz 9.09MB Simrad multibeam vendor format
0319_20130711_124527_raw.all.mb56.gz 9.15MB Simrad multibeam vendor format
0320_20130711_134527_raw.all.mb56.gz 9.26MB Simrad multibeam vendor format
0321_20130711_144527_raw.all.mb56.gz 9.36MB Simrad multibeam vendor format
0322_20130711_154527_raw.all.mb56.gz 9.05MB Simrad multibeam vendor format
0323_20130711_164527_raw.all.mb56.gz 8.57MB Simrad multibeam vendor format
0324_20130711_174527_raw.all.mb56.gz 8.68MB Simrad multibeam vendor format
0325_20130711_184527_raw.all.mb56.gz 8.97MB Simrad multibeam vendor format
0326_20130711_194527_raw.all.mb56.gz 9.44MB Simrad multibeam vendor format
0327_20130711_204527_raw.all.mb56.gz 9.36MB Simrad multibeam vendor format
0328_20130711_214527_raw.all.mb56.gz 9.21MB Simrad multibeam vendor format
0329_20130711_224527_raw.all.mb56.gz 9.19MB Simrad multibeam vendor format
0330_20130711_234527_raw.all.mb56.gz 8.62MB Simrad multibeam vendor format
0331_20130712_004527_raw.all.mb56.gz 8.76MB Simrad multibeam vendor format
0332_20130712_014527_raw.all.mb56.gz 8.38MB Simrad multibeam vendor format
0333_20130712_024527_raw.all.mb56.gz 8.81MB Simrad multibeam vendor format
0334_20130712_034527_raw.all.mb56.gz 8.47MB Simrad multibeam vendor format
0335_20130712_044527_raw.all.mb56.gz 8.42MB Simrad multibeam vendor format
0336_20130712_054527_raw.all.mb56.gz 8.52MB Simrad multibeam vendor format
0337_20130712_064527_raw.all.mb56.gz 9.10MB Simrad multibeam vendor format
0338_20130712_074527_raw.all.mb56.gz 9.25MB Simrad multibeam vendor format
0339_20130712_084527_raw.all.mb56.gz 8.51MB Simrad multibeam vendor format
0340_20130712_094527_raw.all.mb56.gz 8.59MB Simrad multibeam vendor format
0341_20130712_104527_raw.all.mb56.gz 8.52MB Simrad multibeam vendor format
0342_20130712_114527_raw.all.mb56.gz 8.56MB Simrad multibeam vendor format
0343_20130712_124527_raw.all.mb56.gz 8.44MB Simrad multibeam vendor format
0344_20130712_134527_raw.all.mb56.gz 8.47MB Simrad multibeam vendor format
0345_20130712_144527_raw.all.mb56.gz 8.46MB Simrad multibeam vendor format
0346_20130712_154527_raw.all.mb56.gz 8.64MB Simrad multibeam vendor format
0347_20130712_164527_raw.all.mb56.gz 8.61MB Simrad multibeam vendor format
0348_20130712_174527_raw.all.mb56.gz 8.52MB Simrad multibeam vendor format
0349_20130712_184527_raw.all.mb56.gz 8.54MB Simrad multibeam vendor format
0350_20130712_194527_raw.all.mb56.gz 8.45MB Simrad multibeam vendor format
0351_20130712_204527_raw.all.mb56.gz 8.41MB Simrad multibeam vendor format
0352_20130712_214527_raw.all.mb56.gz 8.40MB Simrad multibeam vendor format
0353_20130712_224527_raw.all.mb56.gz 8.50MB Simrad multibeam vendor format
0354_20130712_234527_raw.all.mb56.gz 8.30MB Simrad multibeam vendor format
0355_20130713_004527_raw.all.mb56.gz 8.46MB Simrad multibeam vendor format
0356_20130713_014527_raw.all.mb56.gz 8.20MB Simrad multibeam vendor format
0357_20130713_024527_raw.all.mb56.gz 8.17MB Simrad multibeam vendor format
0358_20130713_034527_raw.all.mb56.gz 8.10MB Simrad multibeam vendor format
0359_20130713_044527_raw.all.mb56.gz 8.29MB Simrad multibeam vendor format
0360_20130713_054527_raw.all.mb56.gz 8.33MB Simrad multibeam vendor format
0361_20130713_064527_raw.all.mb56.gz 8.27MB Simrad multibeam vendor format
0362_20130713_074527_raw.all.mb56.gz 8.30MB Simrad multibeam vendor format
0363_20130713_084527_raw.all.mb56.gz 8.17MB Simrad multibeam vendor format
0364_20130713_094527_raw.all.mb56.gz 8.30MB Simrad multibeam vendor format
0365_20130713_104527_raw.all.mb56.gz 8.40MB Simrad multibeam vendor format
0366_20130713_114527_raw.all.mb56.gz 8.21MB Simrad multibeam vendor format
0367_20130713_124527_raw.all.mb56.gz 8.61MB Simrad multibeam vendor format
0368_20130713_134527_raw.all.mb56.gz 8.95MB Simrad multibeam vendor format
0369_20130713_144527_raw.all.mb56.gz 8.84MB Simrad multibeam vendor format
0370_20130713_154527_raw.all.mb56.gz 8.68MB Simrad multibeam vendor format
0371_20130713_164527_raw.all.mb56.gz 8.81MB Simrad multibeam vendor format
0372_20130713_174527_raw.all.mb56.gz 9.00MB Simrad multibeam vendor format
0373_20130713_184527_raw.all.mb56.gz 9.03MB Simrad multibeam vendor format
0374_20130713_194527_raw.all.mb56.gz 9.03MB Simrad multibeam vendor format
0375_20130713_204527_raw.all.mb56.gz 9.30MB Simrad multibeam vendor format
0376_20130713_214527_raw.all.mb56.gz 9.05MB Simrad multibeam vendor format
0377_20130713_224527_raw.all.mb56.gz 8.90MB Simrad multibeam vendor format
0378_20130713_234527_raw.all.mb56.gz 8.25MB Simrad multibeam vendor format
0379_20130714_004527_raw.all.mb56.gz 9.13MB Simrad multibeam vendor format
0380_20130714_014526_raw.all.mb56.gz 9.00MB Simrad multibeam vendor format
0381_20130714_024526_raw.all.mb56.gz 8.19MB Simrad multibeam vendor format
0382_20130714_034526_raw.all.mb56.gz 7.93MB Simrad multibeam vendor format
0383_20130714_044526_raw.all.mb56.gz 7.95MB Simrad multibeam vendor format
0384_20130714_054526_raw.all.mb56.gz 9.18MB Simrad multibeam vendor format
0385_20130714_064526_raw.all.mb56.gz 10.76MB Simrad multibeam vendor format
0386_20130714_074526_raw.all.mb56.gz 11.09MB Simrad multibeam vendor format
0387_20130714_084526_raw.all.mb56.gz 11.01MB Simrad multibeam vendor format
0388_20130714_094526_raw.all.mb56.gz 11.06MB Simrad multibeam vendor format
0389_20130714_104526_raw.all.mb56.gz 10.79MB Simrad multibeam vendor format
0390_20130714_114526_raw.all.mb56.gz 11.40MB Simrad multibeam vendor format
0391_20130714_124526_raw.all.mb56.gz 11.16MB Simrad multibeam vendor format
0392_20130714_134526_raw.all.mb56.gz 11.29MB Simrad multibeam vendor format
0393_20130714_144526_raw.all.mb56.gz 11.04MB Simrad multibeam vendor format
0394_20130714_154526_raw.all.mb56.gz 11.11MB Simrad multibeam vendor format
0395_20130714_164526_raw.all.mb56.gz 10.60MB Simrad multibeam vendor format
0396_20130714_174526_raw.all.mb56.gz 11.17MB Simrad multibeam vendor format
0397_20130714_184526_raw.all.mb56.gz 11.12MB Simrad multibeam vendor format
0398_20130714_194526_raw.all.mb56.gz 11.45MB Simrad multibeam vendor format
0399_20130714_204526_raw.all.mb56.gz 11.20MB Simrad multibeam vendor format
0400_20130714_214526_raw.all.mb56.gz 11.59MB Simrad multibeam vendor format
0401_20130714_224526_raw.all.mb56.gz 11.03MB Simrad multibeam vendor format
0402_20130714_234526_raw.all.mb56.gz 11.15MB Simrad multibeam vendor format
0403_20130715_004526_raw.all.mb56.gz 11.76MB Simrad multibeam vendor format
0404_20130715_014526_raw.all.mb56.gz 11.88MB Simrad multibeam vendor format
0405_20130715_024527_raw.all.mb56.gz 12.31MB Simrad multibeam vendor format
0406_20130715_034527_raw.all.mb56.gz 12.46MB Simrad multibeam vendor format
0407_20130715_044526_raw.all.mb56.gz 13.03MB Simrad multibeam vendor format
0408_20130715_054527_raw.all.mb56.gz 14.88MB Simrad multibeam vendor format
0409_20130715_064527_raw.all.mb56.gz 5.61MB Simrad multibeam vendor format
0410_20130715_164610_raw.all.mb56.gz 0.80MB Simrad multibeam vendor format
0411_20130715_173034_raw.all.mb56.gz 11.05MB Simrad multibeam vendor format
0412_20130715_183034_raw.all.mb56.gz 12.02MB Simrad multibeam vendor format
0413_20130715_193034_raw.all.mb56.gz 12.23MB Simrad multibeam vendor format
0414_20130715_203034_raw.all.mb56.gz 12.26MB Simrad multibeam vendor format
0415_20130715_213034_raw.all.mb56.gz 12.34MB Simrad multibeam vendor format
0416_20130715_223034_raw.all.mb56.gz 11.44MB Simrad multibeam vendor format
0417_20130715_233034_raw.all.mb56.gz 12.40MB Simrad multibeam vendor format
0418_20130716_003034_raw.all.mb56.gz 12.33MB Simrad multibeam vendor format
0419_20130716_013034_raw.all.mb56.gz 12.23MB Simrad multibeam vendor format
0420_20130716_023034_raw.all.mb56.gz 11.75MB Simrad multibeam vendor format
0421_20130716_033034_raw.all.mb56.gz 12.14MB Simrad multibeam vendor format
0422_20130716_043034_raw.all.mb56.gz 12.26MB Simrad multibeam vendor format
0423_20130716_053034_raw.all.mb56.gz 12.26MB Simrad multibeam vendor format
0424_20130716_063034_raw.all.mb56.gz 12.25MB Simrad multibeam vendor format
0425_20130716_073034_raw.all.mb56.gz 12.24MB Simrad multibeam vendor format
0426_20130716_083034_raw.all.mb56.gz 11.75MB Simrad multibeam vendor format
0427_20130716_093034_raw.all.mb56.gz 12.28MB Simrad multibeam vendor format
0428_20130716_103034_raw.all.mb56.gz 12.43MB Simrad multibeam vendor format
0429_20130716_113034_raw.all.mb56.gz 12.44MB Simrad multibeam vendor format
0430_20130716_123034_raw.all.mb56.gz 12.44MB Simrad multibeam vendor format
0431_20130716_133034_raw.all.mb56.gz 12.45MB Simrad multibeam vendor format
0432_20130716_143034_raw.all.mb56.gz 11.74MB Simrad multibeam vendor format
0433_20130716_153034_raw.all.mb56.gz 12.32MB Simrad multibeam vendor format
0434_20130716_163034_raw.all.mb56.gz 12.49MB Simrad multibeam vendor format
0435_20130716_173034_raw.all.mb56.gz 12.26MB Simrad multibeam vendor format
0436_20130716_183034_raw.all.mb56.gz 12.41MB Simrad multibeam vendor format
0437_20130716_193034_raw.all.mb56.gz 12.56MB Simrad multibeam vendor format
0438_20130716_203034_raw.all.mb56.gz 12.54MB Simrad multibeam vendor format
0439_20130716_213034_raw.all.mb56.gz 11.33MB Simrad multibeam vendor format
0440_20130716_223034_raw.all.mb56.gz 12.21MB Simrad multibeam vendor format
0441_20130716_233034_raw.all.mb56.gz 12.41MB Simrad multibeam vendor format
0442_20130717_003034_raw.all.mb56.gz 12.46MB Simrad multibeam vendor format
0443_20130717_013034_raw.all.mb56.gz 11.93MB Simrad multibeam vendor format
0444_20130717_023034_raw.all.mb56.gz 12.32MB Simrad multibeam vendor format
0445_20130717_033034_raw.all.mb56.gz 12.51MB Simrad multibeam vendor format
0446_20130717_043034_raw.all.mb56.gz 12.50MB Simrad multibeam vendor format
0447_20130717_053035_raw.all.mb56.gz 12.51MB Simrad multibeam vendor format
0448_20130717_063035_raw.all.mb56.gz 12.50MB Simrad multibeam vendor format
0449_20130717_073035_raw.all.mb56.gz 12.14MB Simrad multibeam vendor format
0450_20130717_083035_raw.all.mb56.gz 11.96MB Simrad multibeam vendor format
0451_20130717_093035_raw.all.mb56.gz 12.44MB Simrad multibeam vendor format
0452_20130717_103035_raw.all.mb56.gz 12.43MB Simrad multibeam vendor format
0453_20130717_113035_raw.all.mb56.gz 12.43MB Simrad multibeam vendor format
0454_20130717_123035_raw.all.mb56.gz 12.18MB Simrad multibeam vendor format
0455_20130717_133035_raw.all.mb56.gz 12.29MB Simrad multibeam vendor format
0456_20130717_143035_raw.all.mb56.gz 12.50MB Simrad multibeam vendor format
0457_20130717_153035_raw.all.mb56.gz 12.47MB Simrad multibeam vendor format
0458_20130717_163035_raw.all.mb56.gz 12.48MB Simrad multibeam vendor format
0459_20130717_173035_raw.all.mb56.gz 12.49MB Simrad multibeam vendor format
0460_20130717_183035_raw.all.mb56.gz 11.34MB Simrad multibeam vendor format
0461_20130717_193035_raw.all.mb56.gz 12.39MB Simrad multibeam vendor format
0462_20130717_203035_raw.all.mb56.gz 12.48MB Simrad multibeam vendor format
0463_20130717_213035_raw.all.mb56.gz 12.23MB Simrad multibeam vendor format
0464_20130717_223035_raw.all.mb56.gz 11.00MB Simrad multibeam vendor format
0465_20130718_010051_raw.all.mb56.gz 11.35MB Simrad multibeam vendor format
0466_20130718_020051_raw.all.mb56.gz 11.66MB Simrad multibeam vendor format
0467_20130718_030051_raw.all.mb56.gz 12.04MB Simrad multibeam vendor format
0468_20130718_040051_raw.all.mb56.gz 11.96MB Simrad multibeam vendor format
0469_20130718_050051_raw.all.mb56.gz 11.92MB Simrad multibeam vendor format
0470_20130718_060051_raw.all.mb56.gz 11.97MB Simrad multibeam vendor format
0471_20130718_070051_raw.all.mb56.gz 11.98MB Simrad multibeam vendor format
0472_20130718_080051_raw.all.mb56.gz 11.64MB Simrad multibeam vendor format
0473_20130718_090051_raw.all.mb56.gz 11.98MB Simrad multibeam vendor format
0474_20130718_100051_raw.all.mb56.gz 12.01MB Simrad multibeam vendor format
0475_20130718_110051_raw.all.mb56.gz 12.01MB Simrad multibeam vendor format
0476_20130718_120051_raw.all.mb56.gz 12.04MB Simrad multibeam vendor format
0477_20130718_130051_raw.all.mb56.gz 12.03MB Simrad multibeam vendor format
0478_20130718_140051_raw.all.mb56.gz 12.04MB Simrad multibeam vendor format
0479_20130718_150051_raw.all.mb56.gz 11.76MB Simrad multibeam vendor format
0480_20130718_160051_raw.all.mb56.gz 12.08MB Simrad multibeam vendor format
0481_20130718_170051_raw.all.mb56.gz 12.19MB Simrad multibeam vendor format
0482_20130718_180051_raw.all.mb56.gz 12.17MB Simrad multibeam vendor format
0483_20130718_190051_raw.all.mb56.gz 12.18MB Simrad multibeam vendor format
0484_20130718_200051_raw.all.mb56.gz 12.17MB Simrad multibeam vendor format
0485_20130718_210051_raw.all.mb56.gz 11.53MB Simrad multibeam vendor format
0486_20130718_220051_raw.all.mb56.gz 11.92MB Simrad multibeam vendor format
0487_20130718_230051_raw.all.mb56.gz 12.09MB Simrad multibeam vendor format
0488_20130719_000051_raw.all.mb56.gz 12.27MB Simrad multibeam vendor format
0489_20130719_010051_raw.all.mb56.gz 12.23MB Simrad multibeam vendor format
0490_20130719_020051_raw.all.mb56.gz 12.30MB Simrad multibeam vendor format
0491_20130719_030051_raw.all.mb56.gz 11.77MB Simrad multibeam vendor format
0492_20130719_040051_raw.all.mb56.gz 12.12MB Simrad multibeam vendor format
0493_20130719_050051_raw.all.mb56.gz 12.28MB Simrad multibeam vendor format
0494_20130719_060051_raw.all.mb56.gz 12.14MB Simrad multibeam vendor format
0495_20130719_070051_raw.all.mb56.gz 12.14MB Simrad multibeam vendor format
0496_20130719_080051_raw.all.mb56.gz 11.77MB Simrad multibeam vendor format
0497_20130719_090051_raw.all.mb56.gz 11.98MB Simrad multibeam vendor format
0498_20130719_100051_raw.all.mb56.gz 12.00MB Simrad multibeam vendor format
0499_20130719_110051_raw.all.mb56.gz 11.97MB Simrad multibeam vendor format
0500_20130719_120051_raw.all.mb56.gz 12.01MB Simrad multibeam vendor format
0501_20130719_130051_raw.all.mb56.gz 12.02MB Simrad multibeam vendor format
0502_20130719_140051_raw.all.mb56.gz 12.00MB Simrad multibeam vendor format
0503_20130719_150051_raw.all.mb56.gz 12.00MB Simrad multibeam vendor format
0504_20130719_160051_raw.all.mb56.gz 11.61MB Simrad multibeam vendor format
0505_20130719_170051_raw.all.mb56.gz 11.75MB Simrad multibeam vendor format
0506_20130719_180051_raw.all.mb56.gz 12.03MB Simrad multibeam vendor format
0507_20130719_190051_raw.all.mb56.gz 12.02MB Simrad multibeam vendor format
0508_20130719_200051_raw.all.mb56.gz 12.02MB Simrad multibeam vendor format
0509_20130719_210051_raw.all.mb56.gz 12.02MB Simrad multibeam vendor format
0510_20130719_220051_raw.all.mb56.gz 11.67MB Simrad multibeam vendor format
0511_20130719_230051_raw.all.mb56.gz 12.00MB Simrad multibeam vendor format
0512_20130720_000051_raw.all.mb56.gz 12.19MB Simrad multibeam vendor format
0513_20130720_010051_raw.all.mb56.gz 12.33MB Simrad multibeam vendor format
0514_20130720_020051_raw.all.mb56.gz 12.43MB Simrad multibeam vendor format
0515_20130720_030051_raw.all.mb56.gz 12.87MB Simrad multibeam vendor format
0516_20130720_040051_raw.all.mb56.gz 11.89MB Simrad multibeam vendor format
0517_20130720_050051_raw.all.mb56.gz 12.44MB Simrad multibeam vendor format
0518_20130720_060051_raw.all.mb56.gz 11.95MB Simrad multibeam vendor format
0519_20130720_070051_raw.all.mb56.gz 11.96MB Simrad multibeam vendor format
0520_20130720_080051_raw.all.mb56.gz 11.96MB Simrad multibeam vendor format
0521_20130720_090051_raw.all.mb56.gz 11.54MB Simrad multibeam vendor format
0522_20130720_100051_raw.all.mb56.gz 12.03MB Simrad multibeam vendor format
0523_20130720_110051_raw.all.mb56.gz 12.14MB Simrad multibeam vendor format
0524_20130720_120051_raw.all.mb56.gz 12.12MB Simrad multibeam vendor format
0525_20130720_130051_raw.all.mb56.gz 12.11MB Simrad multibeam vendor format
0526_20130720_140052_raw.all.mb56.gz 12.10MB Simrad multibeam vendor format
0527_20130720_150052_raw.all.mb56.gz 11.65MB Simrad multibeam vendor format
0528_20130720_160052_raw.all.mb56.gz 12.07MB Simrad multibeam vendor format
0529_20130720_170052_raw.all.mb56.gz 12.21MB Simrad multibeam vendor format
0530_20130720_180052_raw.all.mb56.gz 11.31MB Simrad multibeam vendor format
0531_20130720_190052_raw.all.mb56.gz 12.03MB Simrad multibeam vendor format
0532_20130720_200052_raw.all.mb56.gz 12.12MB Simrad multibeam vendor format
0533_20130720_210052_raw.all.mb56.gz 12.13MB Simrad multibeam vendor format
0534_20130720_220052_raw.all.mb56.gz 12.12MB Simrad multibeam vendor format
0535_20130720_230052_raw.all.mb56.gz 10.65MB Simrad multibeam vendor format
0536_20130721_000052_raw.all.mb56.gz 12.57MB Simrad multibeam vendor format
0537_20130721_010052_raw.all.mb56.gz 10.56MB Simrad multibeam vendor format
0538_20130721_020052_raw.all.mb56.gz 12.10MB Simrad multibeam vendor format
0539_20130721_030052_raw.all.mb56.gz 13.48MB Simrad multibeam vendor format
0540_20130721_040052_raw.all.mb56.gz 11.25MB Simrad multibeam vendor format
0541_20130721_050052_raw.all.mb56.gz 12.07MB Simrad multibeam vendor format
0542_20130721_060052_raw.all.mb56.gz 12.08MB Simrad multibeam vendor format
0543_20130721_070052_raw.all.mb56.gz 12.06MB Simrad multibeam vendor format
0544_20130721_080052_raw.all.mb56.gz 12.08MB Simrad multibeam vendor format
0545_20130721_090052_raw.all.mb56.gz 8.67MB Simrad multibeam vendor format
0546_20130721_100052_raw.all.mb56.gz 8.23MB Simrad multibeam vendor format
0547_20130721_110052_raw.all.mb56.gz 8.17MB Simrad multibeam vendor format
0548_20130721_120052_raw.all.mb56.gz 8.22MB Simrad multibeam vendor format
0549_20130721_130052_raw.all.mb56.gz 8.05MB Simrad multibeam vendor format
0550_20130721_140052_raw.all.mb56.gz 8.19MB Simrad multibeam vendor format
0551_20130721_150052_raw.all.mb56.gz 8.35MB Simrad multibeam vendor format
0552_20130721_160052_raw.all.mb56.gz 8.36MB Simrad multibeam vendor format
0553_20130721_170052_raw.all.mb56.gz 8.33MB Simrad multibeam vendor format
0554_20130721_180052_raw.all.mb56.gz 8.34MB Simrad multibeam vendor format
0555_20130721_190052_raw.all.mb56.gz 8.27MB Simrad multibeam vendor format
0556_20130721_200052_raw.all.mb56.gz 7.56MB Simrad multibeam vendor format
0557_20130721_210052_raw.all.mb56.gz 7.39MB Simrad multibeam vendor format
0558_20130721_220052_raw.all.mb56.gz 7.80MB Simrad multibeam vendor format
0559_20130721_230052_raw.all.mb56.gz 8.21MB Simrad multibeam vendor format
0560_20130722_000052_raw.all.mb56.gz 8.56MB Simrad multibeam vendor format
0561_20130722_010052_raw.all.mb56.gz 9.06MB Simrad multibeam vendor format
0562_20130722_020052_raw.all.mb56.gz 9.74MB Simrad multibeam vendor format

Metadata Files: 3

Files File Size Description
NBP1305_Multibeam.xml NGDC created ISO metadata
NBP1305.xml 11.8KB XML metadata file
mb_bag_info.tar.gz 15.3KB Additional cruise information